This is the latest recevied weather packets stored in our database for station/object N4XWC. If no packets are shown the sender has not sent any weather packets the latest 10 day(s).
| Time | Temp. | Humidity | Pressure | Rain* | Wind** | Luminosity | Snow |
|---|---|---|---|---|---|---|---|
| 1787441021 | 29.44° C | 70% | 1013.6 hPa | 0 mm | - | - | - |
| 1787440721 | 29.44° C | 69% | 1013.6 hPa | 0 mm | - | - | - |
| 1787440419 | 29.44° C | 69% | 1013.5 hPa | 0 mm | - | - | - |
| 1787440121 | 30° C | 71% | 1013.5 hPa | 0 mm | - | - | - |
| 1787439820 | 30° C | 69% | 1013.5 hPa | 0 mm | - | - | - |
| 1787439520 | 30° C | 69% | 1013.5 hPa | 0 mm | - | - | - |
| 1787439220 | 30° C | 67% | 1013.5 hPa | 0 mm | - | - | - |
| 1787438919 | 30.56° C | 67% | 1013.5 hPa | 0 mm | - | - | - |
| 1787438620 | 30.56° C | 67% | 1013.6 hPa | 0 mm | - | - | - |
| 1787438321 | 31.11° C | 70% | 1013.6 hPa | 0 mm | - | - | - |
| 1787438019 | 31.11° C | 71% | 1013.6 hPa | 0 mm | - | - | - |
| 1787437720 | 31.11° C | 70% | 1013.3 hPa | 0 mm | - | - | - |
| 1787437420 | 31.11° C | 66% | 1013.3 hPa | 0 mm | - | - | - |
| 1787437119 | 31.11° C | 65% | 1013.3 hPa | 0 mm | - | - | - |
| 1787436820 | 31.11° C | 66% | 1013 hPa | 0 mm | - | - | - |
| 1787436520 | 31.11° C | 65% | 1013 hPa | 0 mm | - | - | - |
| 1787436219 | 31.11° C | 65% | 1013 hPa | 0 mm | - | - | - |
| 1787435920 | 31.67° C | 65% | 1013.1 hPa | 0 mm | - | - | - |
| 1787435620 | 31.67° C | 63% | 1013.1 hPa | 0 mm | - | - | - |
| 1787435319 | 31.67° C | 64% | 1013.1 hPa | 0 mm | - | - | - |
| 1787435020 | 31.67° C | 64% | 1013.2 hPa | 0 mm | - | - | - |
| 1787434720 | 31.67° C | 60% | 1013.2 hPa | 0 mm | - | - | - |
| 1787434419 | 32.22° C | 60% | 1013.2 hPa | 0 mm | - | - | - |
| 1787434120 | 32.22° C | 59% | 1013.3 hPa | 0 mm | - | - | - |
| 1787433820 | 32.22° C | 60% | 1013.3 hPa | 0 mm | - | - | - |
* Rain latest hour (hover to see other rain measurements)
** Current wind speed in m/s (hover to see current wind gust speed)